This is the latest recevied weather packets stored in our database for station/object IZ5MMH-1. If no packets are shown the sender has not sent any weather packets the latest 10 day(s).
| Time | Temp. | Humidity | Pressure | Rain* | Wind** | Luminosity | Snow |
|---|---|---|---|---|---|---|---|
| 1788061504 | 17.78° C | 67% | 1015.4 hPa | - | - | - | - |
| 1788060903 | 18.33° C | 69% | 1015.3 hPa | - | - | - | - |
| 1788060303 | 18.33° C | 64% | 1015.4 hPa | - | - | - | - |
| 1788059704 | 18.33° C | 66% | 1015.3 hPa | - | - | - | - |
| 1788059103 | 18.33° C | 63% | 1015.3 hPa | - | - | - | - |
| 1788058503 | 18.33° C | 64% | 1015.2 hPa | - | - | - | - |
| 1788057908 | 18.33° C | 62% | 1015.4 hPa | - | - | - | - |
| 1788057302 | 18.89° C | 65% | 1015.4 hPa | - | - | - | - |
| 1788056702 | 18.89° C | 62% | 1015.5 hPa | - | - | - | - |
| 1788056102 | 18.89° C | 63% | 1015.4 hPa | - | - | - | - |
| 1788055504 | 18.89° C | 64% | 1015.5 hPa | - | - | - | - |
| 1788054903 | 18.89° C | 61% | 1015.5 hPa | - | - | - | - |
| 1788054302 | 18.89° C | 60% | 1015.6 hPa | - | - | - | - |
| 1788053717 | 19.44° C | 62% | 1015.6 hPa | - | - | - | - |
| 1788053102 | 19.44° C | 60% | 1015.6 hPa | - | - | - | - |
| 1788052502 | 19.44° C | 60% | 1015.6 hPa | - | - | - | - |
| 1788051903 | 19.44° C | 59% | 1015.6 hPa | - | - | - | - |
| 1788051302 | 19.44° C | 59% | 1015.6 hPa | - | - | - | - |
| 1788050702 | 20° C | 60% | 1015.8 hPa | - | - | - | - |
| 1788050102 | 20° C | 57% | 1015.7 hPa | - | - | - | - |
| 1788049502 | 20° C | 57% | 1015.7 hPa | - | - | - | - |
| 1788048902 | 20.56° C | 57% | 1015.8 hPa | - | - | - | - |
| 1788048303 | 20.56° C | 56% | 1015.9 hPa | - | - | - | - |
| 1788047702 | 20.56° C | 57% | 1016 hPa | - | - | - | - |
| 1788047103 | 20.56° C | 59% | 1016 hPa | - | - | - | - |
* Rain since midnight (hover to see other rain measurements)
** Current wind speed in m/s (hover to see current wind gust speed)